Retour au catalogue

COSMOS 2251 DEB

ActifLEO
NORAD 35837·DEBRIS·🇷🇺 Russia

Lancé Jun 16, 1993 depuis Plesetsk Cosmodrome

Loading…

Prochains Passages (prochaines 24 heures)

TLE

FraisSource: Space-Track

Époque: Sep 13, 2026, 14:06 UTC

1 35837U 93036ATK 26256.58789793  .00002282  00000-0  15740-2 0  9997
2 35837  73.7243 109.5080 0411910 351.6975  35.7277 13.65679272617260

Suivez COSMOS 2251 DEB en temps réel avec AllMySat

Download on the App Store